{"data":{"norad_id":61950,"epoch":"2026-05-25T00:03:12.352320Z","epoch_age_seconds":85503,"freshness":"FRESH","line1":"1 61950U 24209M   26145.00222630  .00226611  00000+0  18197-2 0  9996","line2":"2 61950  53.1575 355.0706 0000906  55.5041 304.6062 15.69775733 88707","mean_motion":15.69775733,"eccentricity":9.06e-5,"inclination_deg":53.1575,"raan_deg":355.0706,"arg_perigee_deg":55.5041,"mean_anomaly_deg":304.6062,"bstar":0.0018197,"rev_number":8870,"period_min":91.73284882217,"perigee_km":358.92822088465,"apogee_km":360.14908771321,"semimajor_km":6737.6756542989,"source":"CELESTRAK","updated_at":"2026-05-25T13:38:19.488417Z"}}